This is the latest recevied weather packets stored in our database for station/object K3TLB-13. If no packets are shown the sender has not sent any weather packets the latest 10 day(s).
| Time | Temp. | Humidity | Pressure | Rain* | Wind** | Luminosity | Snow |
|---|---|---|---|---|---|---|---|
| 1777562703 | 15.56° C | 55% | 1009.4 hPa | 0 mm | - | - | - |
| 1777562658 | 15.56° C | 55% | 1009.4 hPa | 0 mm | - | - | - |
| 1777562360 | 15° C | 57% | 1009.5 hPa | 0 mm | - | - | - |
| 1777562061 | 14.44° C | 55% | 1009.6 hPa | 0 mm | - | - | - |
| 1777561816 | 14.44° C | 56% | 1009.6 hPa | 0 mm | - | - | - |
| 1777561758 | 14.44° C | 56% | 1009.6 hPa | 0 mm | - | - | - |
| 1777561458 | 15° C | 54% | 1009.4 hPa | 0 mm | - | - | - |
| 1777561158 | 15° C | 59% | 1009.4 hPa | 0 mm | - | - | - |
| 1777560858 | 15° C | 56% | 1009.4 hPa | 0 mm | - | - | - |
| 1777560558 | 14.44° C | 60% | 1009.6 hPa | 0 mm | - | - | - |
| 1777560258 | 14.44° C | 59% | 1009.7 hPa | 0 mm | - | - | - |
| 1777559958 | 14.44° C | 62% | 1009.7 hPa | 0 mm | - | - | - |
| 1777559658 | 14.44° C | 61% | 1009.7 hPa | 0 mm | - | - | - |
| 1777559361 | 14.44° C | 59% | 1009.7 hPa | 0 mm | - | - | - |
| 1777559058 | 14.44° C | 62% | 1009.5 hPa | 0 mm | - | - | - |
| 1777558758 | 14.44° C | 60% | 1009.6 hPa | 0 mm | - | - | - |
| 1777558458 | 13.89° C | 63% | 1009.5 hPa | 0 mm | - | - | - |
| 1777558160 | 13.89° C | 60% | 1009.4 hPa | 0 mm | - | - | - |
| 1777557860 | 13.89° C | 63% | 1009.4 hPa | 0 mm | - | - | - |
| 1777557559 | 13.89° C | 62% | 1009.3 hPa | 0 mm | - | - | - |
| 1777557259 | 14.44° C | 62% | 1009.3 hPa | 0 mm | - | - | - |
| 1777557014 | 14.44° C | 63% | 1009.2 hPa | 0 mm | - | - | - |
| 1777556959 | 14.44° C | 63% | 1009.2 hPa | 0 mm | - | - | - |
| 1777556659 | 13.89° C | 66% | 1009.3 hPa | 0 mm | - | - | - |
| 1777556359 | 13.89° C | 66% | 1009.3 hPa | 0 mm | - | - | - |
* Rain latest hour (hover to see other rain measurements)
** Current wind speed in m/s (hover to see current wind gust speed)